SPACEBEE-101 (48884 NORAD) Tracking and Keplerian Element Data

This shows tracking and keplerian element data for the satellite.

Feedback or suggestion? Click here.




ElementValue
Catalog48884
NameSPACEBEE-101
Epoch Orbit1679
Epoch Day287.93770321
Epoch Year2021
RAAN55.0829
Inclination97.527
Eccentricity0.0007842
Argument of Perigee226.0212
Mean Anonmoly134.0373
Mean Motion15.12283033
Decay Rate2.744E-05
L11 48884U 21059F 21287.93770321 .00002744 00000-0 16223-3 0 9995
L22 48884 97.5270 55.0829 0007842 226.0212 134.0373 15.12283033 16791

Live tracking and technical data element details for SPACEBEE-101 (NORAD 48884). SPACEBEE-101 can be tracked NOW for your location showing map with azimuth and elevation plus other details from your city location.

Track the satellite on the map from your city or location and see movement details for azimuth, elevation, latitude, longitude, range, height, and movement on the map or in text.







IsCatalogInMostPopularTable: catalog: 48884, numindb: 22
Update: records affected: 1



GetName: 48884 SPACEBEE-101

Hit Count: updated at: Tue, 19 Oct 2021 08:34:50 GMT